User: anonymous   Login
Location: Bismarck
(46.7731°N, 100.8200°W)
Time: 21:17:46
(UTC-05:00)
Language:

Cosmos 1125 Rocket - Orbit

View from above orbital plane
View from above orbital plane
View from above satellite
View from above satellite

Ground track
Ground track

The orbit data is extracted from the following two-line orbital elements,

1 11511U 79078B   16243.80880789  .00000064  00000-0  30617-4 0  9995
2 11511  74.0368 129.0013 0014620  83.7911 276.4907 14.36726340936916
Epoch (UTC): 30 August 2016 19:24:41
Eccentricity: 0.0014620
inclination: 74.0368°
perigee height: 759 km
apogee height: 780 km
right ascension of ascending node: 129.0013°
argument of perigee: 83.7911°
revolutions per day: 14.36726340
mean anomaly at epoch: 276.4907°
orbit number at epoch: 93691

The dashed part of the orbit path shows where the satellite is in the earth's shadow,  

DLR